This is the latest recevied weather packets stored in our database for station/object KB2M. If no packets are shown the sender has not sent any weather packets the latest 10 day(s).
| Time | Temp. | Humidity | Pressure | Rain* | Wind** | Luminosity | Snow |
|---|---|---|---|---|---|---|---|
| 1777684507 | 24.44° C | 79% | 1013.2 hPa | 0 mm | - | - | - |
| 1777683908 | 24.44° C | 80% | 1013.2 hPa | 0 mm | - | - | - |
| 1777683307 | 24.44° C | 80% | 1012.5 hPa | 0 mm | - | - | - |
| 1777682708 | 24.44° C | 80% | 1012.5 hPa | 0 mm | - | - | - |
| 1777682107 | 24.44° C | 79% | 1012.5 hPa | 0 mm | - | - | - |
| 1777681506 | 24.44° C | 79% | 1012.5 hPa | 0 mm | - | - | - |
| 1777680905 | 24.44° C | 80% | 1012.1 hPa | 0 mm | - | - | - |
| 1777680305 | 24.44° C | 80% | 1012.1 hPa | 0 mm | - | - | - |
| 1777679705 | 25° C | 77% | 1011.8 hPa | 0 mm | - | - | - |
| 1777679104 | 25° C | 78% | 1011.8 hPa | 0 mm | - | - | - |
| 1777678503 | 25° C | 78% | 1011.8 hPa | 0 mm | - | - | - |
| 1777677903 | 25° C | 78% | 1011.5 hPa | 0 mm | - | - | - |
| 1777677302 | 25° C | 80% | 1011.5 hPa | 0 mm | - | - | - |
| 1777676701 | 25° C | 80% | 1011.5 hPa | 0 mm | - | - | - |
| 1777676101 | 25° C | 80% | 1011.5 hPa | 0 mm | - | - | - |
| 1777675500 | 25° C | 80% | 1011.1 hPa | 0 mm | - | - | - |
| 1777674900 | 25° C | 80% | 1011.5 hPa | 0 mm | - | - | - |
| 1777674300 | 25° C | 81% | 1011.5 hPa | 0 mm | - | - | - |
| 1777673698 | 25° C | 82% | 1011.1 hPa | 0 mm | - | - | - |
| 1777673098 | 25° C | 81% | 1010.8 hPa | 0 mm | - | - | - |
| 1777672497 | 25.56° C | 79% | 1010.8 hPa | 0 mm | - | - | - |
| 1777671897 | 25.56° C | 79% | 1011.1 hPa | 0 mm | - | - | - |
| 1777671296 | 25.56° C | 78% | 1010.8 hPa | 0 mm | - | - | - |
| 1777670696 | 26.11° C | 74% | 1010.4 hPa | 0 mm | - | - | - |
| 1777670095 | 26.11° C | 73% | 1010.8 hPa | 0 mm | - | - | - |
* Rain latest hour (hover to see other rain measurements)
** Current wind speed in m/s (hover to see current wind gust speed)